FENGYUN 1C DEB

Satellite information

Favourite Embed

Satellite Type and Status

DEBRISIN ORBIT

Key statistics

Satellite FENGYUN 1C DEB at a glance.

Uptime

9497

Days in orbit

Revolutions

≈ 13.8

Per day

Orbit

SSO

Sun Synchronous Orbit

Inclination

98.4

Latest

Satellite identification and parameters

Extended collection of information and parameters for FENGYUN 1C DEB.

Object identification

Identified? True

Debris? True

Object name: FENGYUN 1C DEB

International designator: 1999-025AMJ

Object number (NORAD): 30603

Object ID (CCSDS): 30603

Country: PEOPLES REPUBLIC OF CHINA (PRC)

Current information (Y/N): Y

RCS size: SMALL

Orbital parameters

Period: 104.092 minutes

Inclination: 98.4257 deg

SMA: 7330.007 km

Apoapsis: 1088.467 km

Periapsis: 815.277 km

RAAN: 174.4959 deg

Eccentricy: 0.018635

Argument of periapsis: 81.7293 deg

Mean anomaly: 308.449 deg

Mean motion: 13.83394874 rev/day

Mean motion (dot): 0.00001811 rev/day2

B* drag term: 0.0014688 1/REarth

Two-line elements (TLE)

Creation date: May 9, 2025, 5:15 p.m.

Reference frame: TEME

Reference center: EARTH

Epoch: May 9, 2025, 2:15 a.m. UTC

TLE line 0: 0 FENGYUN 1C DEB

TLE line 1: 1 30603U 99025AMJ 25129.09422715 .00001811 00000-0 14688-2 0 9996

TLE line 2: 2 30603 98.4257 174.4959 0186350 81.7293 308.4490 13.83394874918669

Live tracking on map

Real-time ground track for satellite FENGYUN 1C DEB.

In-orbit conjunctions

A list of the most updated potential collisions computed for object FENGYUN 1C DEB.

Target Orbit TCA Probability of collision Miss distance Type
MINOTAUR R/B SSO 2024-08-28 00:41:38 0.000920817 157.0 (m) ROCKET BODY

Associated space launch

Chinese polar orbiting meteorological satellite

FENGYUN 1C DEB was lifted into orbit during the mission ‘Long March 4B | Feng Yun 1C’, on board a Long March 4B space rocket.

The launch took place on May 10, 1999, 1:33 a.m. from Launch Complex 7.

For more information about the launch, click the button.

Launch to space Long March 4B | Feng Yun 1C
Long March 4B | Feng Yun 1C

Agency: N/A

Status: Launch Successful

Launch date: May 10, 1999, 1:33 a.m. UTC

Rocket: Long March 4B

Launch pad: Launch Complex 7

Location: Taiyuan Satellite Launch Center, People's Republic of China

...

Latest news about this satellite

There are no fresh news available about this satellite. Check back as we update our databases every day.


Newsletter sign-up

Weekly statistics, charts and insights to help you stay on top of the space industry.